OpenBCM V1.13 (Linux)

Packet Radio Mailbox

DB0FHN

[JN59NK Nuernberg]

 Login: GUEST





  
LU1HVK > KEP      14.09.19 08:35l 244 Lines 12026 Bytes #999 (0) @ WW
BID : 31740_LU1HVK
Read: DF7EAV DJ6UX GUEST
Subj: TLE 14 09
Path: DB0FHN<DB0BLO<DB0ERF<DB0RES<DB0OVN<DB0GOS<ON0AR<VK6HGR<GB7CIP<N3HYM<
      LU3DVN<LU9HGS<LU1HVK
Sent: 190914/0523Z 31740@LU1HVK.2594.CBA.ARG.SA LinBPQ6.0.18

                         _    _   _ _ _   ___     ___  __
                        | |  | | | / | | | \ \   / / |/ /
                        | |  | | | | | |_| |\ \ / /| ' /
                        | |__| |_| | |  _  | \ V / | . \
                        |_____\___/|_|_| |_|  \_/  |_|\_\

     BBS/NODO - CORDOBA (LEONES-FF87UH) - LU1HVK-4 NODO - LU1HVK-3 APRS

+----------------------------------------------------------------------------+
OSCAR 7
1  7530U 74089B   19256.93051126 -.00000041 +00000-0 +23408-4 0  9990
2  7530 101.7535 223.7267 0012014 177.0686 251.3118 12.53639835051216
OSCAR 11 (UoSAT 2)
1 14781U 84021B   19256.93622470 +.00000032 +00000-0 +99971-5 0  9997
2 14781 097.6074 277.5094 0009431 041.4317 318.7610 14.83105626890691
OSCAR 19 (LUSAT)
1 20442U 90005G   19256.88301086 +.00000001 +00000-0 +16637-4 0  9991
2 20442 098.6535 198.7590 0010633 251.2949 108.7081 14.32932558548806
EYESAT A
1 22825U 93061C   19256.88814711 -.00000009 +00000-0 +14504-4 0  9997
2 22825 098.9099 247.5412 0009470 103.2625 256.9613 14.30066187354144
ITAMSAT
1 22826U 93061D   19256.93944771 -.00000011 +00000-0 +13557-4 0  9994
2 22826 098.9039 247.5742 0010032 093.1307 267.1022 14.30400116354372
RADIO ROSTO
1 23439U 94085A   19256.87617044 -.00000050 +00000-0 -21194-3 0  9994
2 23439 064.8194 335.1376 0145536 096.3092 265.4429 11.27568218017726
JAS 2
1 24278U 96046B   19256.87842411 -.00000052 +00000-0 -17039-4 0  9999
2 24278 098.5505 038.5033 0350594 014.1475 346.9187 13.53092829139347
TECHSAT 1B
1 25397U 98043D   19256.83802671 -.00000015 +00000-0 +12778-4 0  9994
2 25397 098.6929 195.9449 0002106 117.1936 242.9457 14.23670334100051
ISS (ZARYA)
1 25544U 98067A   19256.99954911  .00000784  00000-0  21493-4 0  9992
2 25544  51.6447 280.7646 0008474  38.3482 153.8128 15.50449513189039
PCSAT
1 26931U 01043C   19256.89331905 -.00000004 +00000-0 +30336-4 0  9994
2 26931 067.0509 138.6585 0007471 271.7547 088.2698 14.30551983937377
SAUDISAT 1C
1 27607U 02058C   19256.90788278 -.00000028 +00000-0 +16891-4 0  9999
2 27607 064.5547 142.9435 0077218 239.6513 119.6938 14.75570680899777
CUTE-1
1 27844U 03031E   19256.89190619 +.00000040 +00000-0 +37548-4 0  9993
2 27844 098.6852 263.8045 0010635 134.0778 226.1277 14.22193950840643
CUBESAT XI 4
1 27848U 03031J   19256.48666081 +.00000028 +00000-0 +32519-4 0  9992
2 27848 098.6928 263.9236 0010328 145.9919 214.1923 14.21787137840449
MOZHAYETS 4
1 27939U 03042A   19256.81988543  .00000014  00000-0  11155-4 0  9990
2 27939  98.0526  30.9971 0013574 147.1546 213.0512 14.66801436853312
CUBESAT XI 5
1 28895U 05043F   19256.87500011 +.00000093 +00000-0 +26652-4 0  9996
2 28895 097.9717 036.6783 0018125 077.9375 282.3857 14.63689654740000
CUTE-1.7+APD II
1 32785U 08021C   19256.74990584 +.00000142 +00000-0 +20935-4 0  9995
2 32785 097.5538 252.3758 0012530 341.1399 018.9352 14.88342318616561
DELFI C3
1 32789U 08021G   19256.73197136 +.00000882 +00000-0 +62730-4 0  9990
2 32789 097.4573 303.7418 0012283 179.8889 180.2344 15.07104004619974
SEEDS
1 32791U 08021J   19256.48732232 +.00000340 +00000-0 +39867-4 0  9991
2 32791 097.5305 258.1814 0012161 313.8734 046.1479 14.90866107616963
YUBELEINY
1 32953U 08025A   19256.88905952 +.00000020 +00000-0 +75656-4 0  9991
2 32953 082.4982 090.5370 0018879 301.1548 058.7681 12.43091060513141
PRISM (HITOMI)
1 33493U 09002B   19256.77472797 -.00000130  00000-0 -57289-5 0  9998
2 33493  98.1201 181.0306 0013831 255.2385 104.7303 14.96725432578179
KKS-1 (KISEKI)
1 33499U 09002H   19256.88676439 +.00000066 +00000-0 +17785-4 0  9997
2 33499 098.3448 098.3552 0007980 292.7984 067.2381 14.75461193571655
SWISSCUBE
1 35932U 09051B   19256.92414795 +.00000081 +00000-0 +29427-4 0  9998
2 35932 098.5965 065.4940 0006494 255.9420 104.1055 14.56307994529431
BEESAT
1 35933U 09051C   19256.92187127 +.00000068 +00000-0 +26484-4 0  9990
2 35933 098.5986 067.2876 0004653 271.7156 088.3508 14.56394236529509
ITUPSAT 1
1 35935U 09051E   19256.41123676  .00000045  00000-0  21494-4 0  9996
2 35935  98.6094  66.9925 0006969 270.5638  89.4760 14.55550767529253
XIWANG-1 (HOPE-1)
1 36122U 09072B   19256.68506893 -.00000038 +00000-0 +11540-4 0  9997
2 36122 100.0763 254.9849 0007836 142.0928 218.0730 13.16350898468322
TISAT 1
1 36799U 10035E   19256.91799612 +.00000398 +00000-0 +46177-4 0  9999
2 36799 098.1670 052.0226 0012832 154.6680 205.5169 14.91152354497564
JUGNU
1 37839U 11058B   19256.13862708 +.00000302 +00000-0 +18966-4 0  9992
2 37839 019.9603 170.5494 0018999 199.6146 304.5592 14.12658172409381
SRMSAT
1 37841U 11058D   19256.31191966  .00000293  00000-0  15792-4 0  9999
2 37841  19.9709 228.0685 0012060  68.8747  75.5122 14.10638543408931
M-CUBED/EXP-1 PRIME
1 37855U 11061F   19256.79435205 +.00000769 +00000-0 +46334-4 0  9991
2 37855 101.7111 197.1008 0173042 178.5048 181.6717 15.05572359429411
HORYU 2
1 38340U 12025D   19256.90655871 +.00000114 +00000-0 +24643-4 0  9991
2 38340 098.3222 298.0821 0011061 200.0708 160.0067 14.75746948383618
STRAND 1
1 39090U 13009E   19256.79928687 +.00000013 +00000-0 +19632-4 0  9992
2 39090 098.4809 101.2666 0009895 036.0118 324.1733 14.35096266342861
SOMP
1 39134U 13015E   19256.91883698 +.00000543 +00000-0 +34062-4 0  9996
2 39134 064.8619 097.8079 0035670 289.4046 070.3227 15.20308383353476
BEESAT 3
1 39135U 13015F   19256.93034367 +.00000433 +00000-0 +31240-4 0  9993
2 39135 064.8681 117.3063 0032816 300.3829 059.4054 15.17591354353090
BEESAT 2
1 39136U 13015G   19256.93463656 +.00000581 +00000-0 +39111-4 0  9990
2 39136 064.8683 121.3635 0024544 304.3462 055.5342 15.17010072353011
CUBEBUG 1
1 39153U 13018D   19256.80906849  .00000134  00000-0  24462-4 0  9991
2 39153  97.9808 354.4553 0015538 276.6064  83.3379 14.80592769344708
ZACUBE
1 39417U 13066B   19256.92193357 +.00000142 +00000-0 +24072-4 0  9998
2 39417 097.5627 265.5223 0060447 107.5472 253.2358 14.81145808313953
TRITON 1
1 39427U 13066M   19256.91444699 +.00000140 +00000-0 +30654-4 0  9997
2 39427 097.6856 228.9455 0112368 245.9862 112.9549 14.67876780310942
GOMX 1
1 39430U 13066Q   19256.77353491  .00000179  00000-0  41668-4 0  9993
2 39430  97.7534 207.6235 0151141 340.2056  19.3323 14.59282718309307
HUMSAT D
1 39433U 13066T   19256.92079513 +.00000260 +00000-0 +30625-4 0  9995
2 39433 097.5462 300.8273 0030968 012.7163 347.4831 14.92245399314901
CUBEBUG 2
1 39440U 13066AA  19256.93957323 +.00000138 +00000-0 +26138-4 0  9996
2 39440 097.6071 250.2470 0080672 160.5082 199.9244 14.75883388311645
FUNCUBE 1
1 39444U 13066AE  19256.94171094 +.00000193 +00000-0 +29953-4 0  9993
2 39444 097.5602 267.5698 0059619 101.1532 259.6392 14.81971050312267
UWE-3
1 39446U 13066AG  19256.92970631 +.00000131 +00000-0 +23907-4 0  9992
2 39446 097.5841 257.3505 0071108 134.4819 226.2237 14.78418312311565
SPROUT
1 39770U 14029E   19256.88564488 +.00000598 +00000-0 +72167-4 0  9995
2 39770 097.8862 359.6302 0009019 152.8436 207.3224 14.87417190287799
UNISAT 6
1 40012U 14033C   19256.83914910 +.00000132 +00000-0 +27070-4 0  9992
2 40012 097.7454 119.6461 0058287 175.2890 184.8880 14.74004748281529
DUCHIFAT 1
1 40021U 14033M   19256.74079400 +.00000407 +00000-0 +47341-4 0  9996
2 40021 097.9227 181.6214 0014054 119.3253 240.9371 14.90677597284517
QB50P1
1 40025U 14033R   19256.92874556 +.00000220 +00000-0 +29384-4 0  9995
2 40025 097.9029 176.4638 0013472 128.0765 232.1670 14.88979048283798
CHUBUSAT 1
1 40300U 14070C   19256.84020777 +.00000496 +00000-0 +24505-4 0  9996
2 40300 097.3217 328.7966 0020870 107.1618 029.7173 15.22163474269270
NUDT-PHONESAT
1 40900U 15049B   19256.96140780 +.00001593 +00000-0 +70638-4 0  9996
2 40900 097.4375 265.4501 0011483 234.5264 183.8057 15.23022945220948
ZDPS 2A
1 40901U 15049C   19256.95910844 +.00000533 +00000-0 +29685-4 0  9991
2 40901 097.4610 261.5294 0011917 259.2157 155.9660 15.17823414220475
ZDPS 2B
1 40902U 15049D   19256.80898325  .00001026  00000-0  54208-4 0  9992
2 40902  97.4562 258.8086 0011902 256.6362 227.4570 15.17674348220423
XW-2A
1 40903U 15049E   19256.74603024  .00001429  00000-0  35382-4 0  9995
2 40903  97.3307 299.9754 0013198 183.5553 310.5983 15.42074290223666
KAITUO 1A
1 40904U 15049F   19256.83014634  .00000238  00000-0  16076-4 0  9995
2 40904  97.4695 257.3588 0013062 266.8302 191.7769 15.15424175220195
OBJECT G
1 40905U 15049G   19256.84420321  .00000118  00000-0  10006-4 0  9995
2 40905  97.4743 254.8344 0014153 260.7620 219.6954 15.14337959220064
XW-2C
1 40906U 15049H   19256.87638047  .00000550  00000-0  32301-4 0  9997
2 40906  97.4706 257.5235 0013159 257.1654 187.1326 15.15746383220209
XW-2D
1 40907U 15049J   19256.84953797  .00000434  00000-0  26060-4 0  9993
2 40907  97.4685 257.1780 0012688 253.2529 226.3124 15.15939181220214
LILACSAT 2
1 40908U 15049K   19256.78613515  .00000156  00000-0  12252-4 0  9997
2 40908  97.4810 255.8537 0014409 260.7100 225.7110 15.13844244219984
XW-2F
1 40910U 15049M   19256.79532612  .00000842  00000-0  45446-4 0  9992
2 40910  97.4646 259.2508 0013173 245.1008 239.6529 15.17409614220220
XW-2B
1 40911U 15049N   19256.82079954  .00000516  00000-0  30427-4 0  9993
2 40911  97.4704 257.8124 0012549 254.8105 227.8688 15.15867990220100
KAITUO 1B
1 40912U 15049P   19256.82523325  .00000877  00000-0  44168-4 0  9997
2 40912  97.4509 263.0564 0013578 224.6408 259.6342 15.19734654220547
TIANWANG 1C (TW-1C)
1 40926U 15051B   19256.76889932  .00010823  00000-0  14985-3 0  9992
2 40926  97.1274 302.8741 0009143  55.0723  38.1573 15.57224237223706
TIANWANG 1B (TW-1B)
1 40927U 15051C   19256.81727168  .00009694  00000-0  14292-3 0  9996
2 40927  97.1312 302.1168 0009713  63.7902  25.2739 15.55543392223552
